Pompano Beach, FL

12:14 AM EDT on July 24, 2017 (GMT -0400)
Pompano Beach

Weather History for KPMP - October, 2011

Change the Weather History Date:

Tuesday, October 25, 2011

  Actual Average Record
Temperature  
Mean Temperature 75 °F -  
Max Temperature 82 °F 86 °F 91 °F (1966)
Min Temperature 68 °F 69 °F 57 °F (1982)
Cooling Degree Days 10    
Growing Degree Days 25 (Base 50)    
Moisture  
Dew Point 63 °F    
Average Humidity 66    
Maximum Humidity 84    
Minimum Humidity 51    
Precipitation  
Precipitation 0.00 in - - ()
Sea Level Pressure  
Sea Level Pressure 30.07 in    
Wind  
Wind Speed 11 mph (NNE)    
Max Wind Speed 17 mph    
Max Gust Speed 24 mph    
Visibility 10 miles    
Events Rain    
Averages and records for this station are not official NWS values.
T = Trace of Precipitation, MM = Missing Value Source: NWS Daily Summary

Daily Weather History Graph

Daily Weather History Graph

Search for Another Location

Airport or City:

Trip Planner

Search our weather history database for the weather conditions in past years. The results will help you decide how hot, cold, wet, or windy it might be!

Date:

Astronomy

Oct. 25, 2011 Rise Set
Actual Time 7:24 AM EDT 6:43 PM EDT
Civil Twilight 7:01 AM EDT 7:07 PM EDT
Nautical Twilight 6:34 AM EDT 7:34 PM EDT
Astronomical Twilight 6:07 AM EDT 8:01 PM EDT
Moon 5:58 AM EDT (10/25) 5:44 PM EDT (10/25)
Length of Visible Light 12h 05m
Length of Day
11h 18m
Waning Crescent, 2% of the Moon is Illuminated
Oct 25
Waning Crescent
Oct 26
New
Nov 2
First Quarter
Nov 10
Full
Nov 18
Last Quarter

Hourly Weather History & Observations

Time (EDT) Temp. Heat Index Dew Point Humidity Pressure Visibility Wind Dir Wind Speed Gust Speed Precip Events Conditions
12:53 AM 69.1 °F - 64.0 °F 84% 30.07 in 10.0 mi NNW 9.2 mph - N/A   Scattered Clouds
1:53 AM 69.1 °F - 63.0 °F 81% 30.05 in 10.0 mi NNW 9.2 mph - N/A   Clear
2:53 AM 68.0 °F - 62.1 °F 81% 30.04 in 10.0 mi NNW 9.2 mph - N/A   Clear
3:53 AM 69.1 °F - 61.0 °F 75% 30.02 in 10.0 mi NNW 8.1 mph - N/A   Clear
4:53 AM 69.1 °F - 63.0 °F 81% 30.03 in 10.0 mi North 5.8 mph - 0.00 in Rain Light Rain
5:53 AM 68.0 °F - 63.0 °F 84% 30.04 in 10.0 mi NNW 4.6 mph - 0.00 in   Mostly Cloudy
6:53 AM 69.1 °F - 63.0 °F 81% 30.04 in 10.0 mi NNW 8.1 mph - N/A   Mostly Cloudy
8:53 AM 72.0 °F - 64.0 °F 76% 30.09 in 10.0 mi NNW 8.1 mph - N/A   Scattered Clouds
9:53 AM 81.0 °F 82.5 °F 64.0 °F 56% 30.09 in 10.0 mi NE 12.7 mph - N/A   Clear
10:53 AM 81.0 °F 82.2 °F 63.0 °F 54% 30.10 in 10.0 mi NE 16.1 mph - N/A   Partly Cloudy
11:53 AM 82.9 °F 84.0 °F 63.0 °F 51% 30.11 in 10.0 mi NE 17.3 mph - N/A   Partly Cloudy
12:53 PM 82.0 °F 83.1 °F 63.0 °F 52% 30.10 in 10.0 mi NE 17.3 mph - N/A   Scattered Clouds
1:53 PM 81.0 °F 82.2 °F 63.0 °F 54% 30.08 in 10.0 mi NE 16.1 mph 24.2 mph N/A   Partly Cloudy
2:53 PM 81.0 °F 81.9 °F 62.1 °F 52% 30.06 in 10.0 mi NE 15.0 mph 20.7 mph N/A   Clear
4:53 PM 80.1 °F 81.5 °F 63.0 °F 56% 30.05 in 10.0 mi ENE 16.1 mph 21.9 mph N/A   Partly Cloudy
5:53 PM 79.0 °F - 62.1 °F 56% 30.06 in 10.0 mi NE 11.5 mph - N/A   Mostly Cloudy
6:53 PM 78.1 °F - 62.1 °F 58% 30.06 in 10.0 mi NE 9.2 mph - N/A   Mostly Cloudy
7:53 PM 77.0 °F - 64.0 °F 64% 30.06 in 10.0 mi NE 11.5 mph 19.6 mph N/A   Scattered Clouds
9:53 PM 78.1 °F - 66.0 °F 66% 30.07 in 10.0 mi ENE 13.8 mph - N/A   Mostly Cloudy
10:53 PM 77.0 °F - 64.9 °F 66% 30.08 in 10.0 mi ENE 16.1 mph - N/A   Partly Cloudy
11:53 PM 77.0 °F - 64.9 °F 66% 30.07 in 10.0 mi ENE 10.4 mph 20.7 mph N/A   Clear